This demonstration page uses our WeatherBlox Daily Observations layout. Learn more.

Left ArrowRight Arrow

Hourly Observations for July 6, 2016

Temp ( °F °C ) Dew Point ( °F °C ) Humidity (%) Winds ( mph kmh ) Pressure ( in mb ) Visibility ( mi km ) Precip ( " mm )
12:15 am 00:15 Clear 71 21.6 66 18.8 84 84 WNW 5 7 29.80 1009 10 16 N/A
12:35 am 00:35 Clear 71 21.6 66 19 85 85 SSE 6 9 29.80 1009 10 16 N/A
12:55 am 00:55 Clear 70 21.1 66 19 88 88 W 7 11 29.80 1009 10 16 N/A
1:15 am 01:15 Clear 70 21.3 65 18.6 85 85 NW 6 9 29.77 1008 10 16 N/A
1:35 am 01:35 Clear 70 21 64 18 83 83 WNW 7 11 29.77 1008 10 16 N/A
1:55 am 01:55 Clear 69 20.7 64 17.5 82 82 E 6 9 29.74 1007 10 16 N/A
2:15 am 02:15 Clear 69 20.4 63 17.2 82 82 N N/A 29.74 1007 10 16 N/A
2:35 am 02:35 Clear 67 19.3 64 17.5 89 89 NNW 5 7 29.74 1007 10 16 N/A
2:55 am 02:55 Clear 67 19.4 64 17.7 90 90 NW 10 17 29.77 1008 10 16 N/A
3:15 am 03:15 Clear 67 19.6 64 17.5 88 88 NNW 3 6 29.74 1007 10 16 N/A
3:35 am 03:35 Clear 67 19.3 64 17.5 89 89 N N/A 29.74 1007 10 16 N/A
3:55 am 03:55 Clear 66 18.7 63 17.1 90 90 NW 6 9 29.74 1007 10 16 N/A
4:15 am 04:15 Clear 65 18.5 63 17.2 92 92 WNW 7 11 29.74 1007 10 16 N/A
4:35 am 04:35 Clear 65 18.6 63 17 90 90 WNW 5 7 29.74 1007 10 16 N/A
4:55 am 04:55 Clear 64 18 62 16.8 93 93 WNW 6 9 29.77 1008 10 16 N/A
5:15 am 05:15 Clear 64 17.7 62 16.5 93 93 WNW 3 6 29.80 1009 10 16 N/A
5:35 am 05:35 Clear 64 17.6 62 16.5 93 93 WNW 3 6 29.80 1009 7 11 N/A
5:55 am 05:55 Clear 64 17.8 62 16.7 93 93 N N/A 29.80 1009 10 16 N/A
6:15 am 06:15 Sunny 63 17.3 61 16.1 93 93 E 7 11 29.80 1009 10 16 N/A
6:35 am 06:35 Sunny 64 17.7 61 16.3 92 92 WNW 5 7 29.80 1009 10 16 N/A
6:55 am 06:55 Sunny 64 17.5 61 16.2 92 92 ENE 3 6 29.77 1008 7 11 N/A
7:15 am 07:15 Sunny 65 18.1 63 17.1 94 94 E 5 7 29.74 1007 10 16 N/A
7:35 am 07:35 Sunny 68 20.1 65 18.2 89 89 N N/A 29.74 1007 10 16 N/A
7:55 am 07:55 Sunny 70 20.9 65 18.3 85 85 N N/A 29.77 1008 10 16 N/A
8:15 am 08:15 Sunny 71 21.7 65 18.4 82 82 ESE 6 9 29.77 1008 10 16 N/A
8:35 am 08:35 Sunny 72 22.4 66 18.7 80 80 ESE 5 7 29.74 1007 10 16 N/A
8:55 am 08:55 Sunny 74 23.1 66 18.9 77 77 SE 7 11 29.74 1007 10 16 N/A
9:15 am 09:15 Sunny 74 23.6 66 19 75 75 ESE 7 11 29.74 1007 10 16 N/A
9:35 am 09:35 Sunny 76 24.3 66 19 72 72 SE 7 11 29.74 1007 10 16 N/A
9:55 am 09:55 Sunny 77 25 66 18.9 69 69 ESE 6 9 29.74 1007 10 16 N/A
10:15 am 10:15 Sunny 78 25.7 66 18.9 66 66 E 6 9 29.71 1006 7 11 N/A
10:35 am 10:35 Sunny 79 26.1 66 19 65 65 N N/A 29.74 1007 10 16 N/A
10:55 am 10:55 Sunny 80 26.5 67 19.2 64 64 E 3 6 29.74 1007 10 16 N/A
11:15 am 11:15 Sunny 81 27 67 19.6 64 64 NE 3 6 29.74 1007 10 16 N/A
11:35 am 11:35 Sunny 82 27.6 66 18.9 59 59 SSE 3 6 29.74 1007 10 16 N/A
11:55 am 11:55 Sunny 83 28.5 66 19.1 57 57 SSE 5 7 29.74 1007 10 16 N/A
12:15 pm 12:15 Sunny 83 28.6 67 19.4 58 58 SSE 6 9 29.74 1007 10 16 N/A
12:35 pm 12:35 Sunny 84 28.8 67 19.6 58 58 SSE 5 7 29.74 1007 10 16 N/A
12:55 pm 12:55 Sunny 85 29.3 68 20.1 58 58 ESE 6 9 29.68 1005 10 16 N/A
1:15 pm 13:15 Sunny 86 29.8 68 19.9 55 55 S 9 15 29.68 1005 10 16 N/A
1:35 pm 13:35 Sunny 86 30 67 19.2 52 52 SSE 6 9 29.68 1005 10 16 N/A
1:55 pm 13:55 Sunny 86 30.1 67 19.2 52 52 SE 7 11 29.68 1005 10 16 N/A
2:15 pm 14:15 Sunny 87 30.4 66 19 51 51 SE 6 9 29.65 1004 10 16 N/A
2:35 pm 14:35 Sunny 87 30.8 67 19.5 51 51 ESE 7 11 29.65 1004 10 16 N/A
2:55 pm 14:55 Sunny 88 31.2 67 19.5 50 50 SSE 8 13 29.65 1004 10 16 N/A
3:15 pm 15:15 Sunny 89 31.4 68 19.8 50 50 SSE 10 17 29.65 1004 10 16 N/A
3:35 pm 15:35 Sunny 89 31.6 68 19.9 50 50 S 10 17 29.65 1004 10 16 N/A
3:55 pm 15:55 Sunny 89 31.8 67 19.6 48 48 SE 8 13 29.65 1004 10 16 N/A
4:15 pm 16:15 Sunny 90 32 68 20.1 49 49 SSE 8 13 29.62 1003 10 16 N/A
4:35 pm 16:35 Sunny 90 32.1 69 20.6 51 51 SSE 8 13 29.59 1002 10 16 N/A
4:55 pm 16:55 Sunny 90 32 69 20.6 51 51 SSE 13 20 29.62 1003 10 16 N/A
5:15 pm 17:15 Sunny 87 30.4 69 20.5 55 55 SSE 8 13 29.62 1003 10 16 N/A
5:35 pm 17:35 Sunny 86 30.2 69 20.8 57 57 SE 9 15 29.59 1002 10 16 N/A
5:55 pm 17:55 Sunny 86 30.1 69 20.6 57 57 SE 8 13 29.59 1002 10 16 N/A
6:15 pm 18:15 Sunny 86 30.1 69 20.6 57 57 SE 9 15 29.59 1002 10 16 N/A
6:35 pm 18:35 Sunny 86 30.1 69 20.3 56 56 SE 12 19 29.59 1002 10 16 N/A
6:55 pm 18:55 Sunny 86 29.9 69 20.7 58 58 ESE 10 17 29.59 1002 10 16 N/A
7:15 pm 19:15 Sunny 85 29.2 70 20.9 61 61 ESE 9 15 29.56 1001 10 16 N/A
7:35 pm 19:35 Sunny 84 29.1 71 21.4 63 63 SE 9 15 29.59 1002 10 16 N/A
7:55 pm 19:55 Sunny 85 29.6 71 21.4 61 61 SE 10 17 29.56 1001 10 16 N/A
8:15 pm 20:15 Sunny 84 28.8 68 19.9 59 59 SE 8 13 29.56 1001 10 16 N/A
8:35 pm 20:35 Sunny 83 28.5 68 20 60 60 SE 8 13 29.56 1001 10 16 N/A
8:55 pm 20:55 Sunny 83 28.5 67 19.4 58 58 SE 14 22 29.56 1001 10 16 N/A
9:15 pm 21:15 Clear 83 28.1 65 18.3 55 55 SSE 13 20 29.56 1001 10 16 N/A
9:35 pm 21:35 Clear 82 27.6 65 18.5 58 58 SSE 13 20 29.59 1002 10 16 N/A
9:55 pm 21:55 Clear 81 27.1 66 18.8 61 61 SSE 14 22 29.59 1002 10 16 N/A
10:15 pm 22:15 Clear with Nearby Thunderstorms 80 26.8 66 19 62 62 SSE 12 19 29.59 1002 10 16 N/A
10:35 pm 22:35 Clear 80 26.6 66 19.1 64 64 S 8 13 29.65 1004 10 16 N/A
10:55 pm 22:55 Mostly Cloudy with Nearby Thunderstorms 76 24.6 61 16.1 59 59 NNE 6 9 29.71 1006 10 16 N/A
11:15 pm 23:15 Cloudy with Thunderstorms 76 24.4 64 17.8 67 67 E 15 24 29.68 1005 10 16 0.01 0.25
11:35 pm 23:35 Cloudy with Thunderstorms 72 22.2 66 18.9 82 82 N 14 22 29.71 1006 3 5 0.25 6.35
11:55 pm 23:55 Mostly Cloudy with Nearby Thunderstorms 69 20.4 62 16.9 80 80 ENE 21 33 29.65 1004 10 16 0.25 6.35

Powered by AerisWeather